Flag for Israel Weather past 2 weeks in Modi'in-Maccabim-Re'ut, Israel

Now
81 °F

Sunny.


Feels Like: 85 °F
Forecast: 72 / 89 °F
Wind: 5 mph from Southeast

Location: Ben Gurion International Airport

Current Time: Aug 29, 2015 at 9:12:46 AM

Latest Report: Aug 29, 2015 at 8:20 AM


Visibility: 10 mi

Pressure: 29.89 "Hg

Humidity: 74%

Dew point: 72 °F

Location of Modi'in-Maccabim-Re'utLocation

Historic Weather in Modi'in-Maccabim-Re'ut — Graph

°F

Modi'in-Maccabim-Re'ut temperature yesterday

Maximum temperature yesterday: 90 °F (at 12:20 PM)
Minimum temperature yesterday: 77 °F (at 4:20 AM)
Average temperature yesterday: 84 °F

Past Weeks' High & Low Weather Summary

 TemperatureHumidityPressure
High100 °F (Aug 16, 2:20 PM)84% (Aug 15, 1:50 AM)29.89 "Hg (Aug 15, 1:50 AM)
Low75 °F (Aug 26, 4:20 AM)40% (Aug 16, 8:50 AM)29.71 "Hg (Aug 16, 2:20 PM)
Average84 °F65%29.79 "Hg
* Reported Aug 14 8:20 AM — Aug 29 8:20 AM, Modi'in-Maccabim-Re'ut, Weather by CustomWeather, © 2015

Note: Actual official high and low records may vary slightly from our data, if they occured in-between our weather recording intervals... More about our weather records

Advertising

Modi'in-Maccabim-Re'ut weather history for previous 24 hours

 ConditionsComfort  
Time TempWeatherWind HumidityBarometerVisibility
8:20 AM
Sat, Aug 29
81 °FSunny.5 mph74%29.89 "Hg10 mi
7:50 AM79 °FSunny.5 mph74%29.89 "Hg10 mi
7:20 AM77 °FSunny.3 mph79%29.89 "Hg10 mi
6:50 AM75 °FPassing clouds.5 mph83%29.86 "HgN/A
5:50 AM75 °FClear.2 mph78%29.86 "Hg10 mi
5:20 AM75 °FClear.2 mph83%29.86 "Hg10 mi
4:50 AM75 °FPassing clouds.3 mph78%29.86 "HgN/A
4:20 AM77 °FPassing clouds.3 mph79%29.86 "HgN/A
3:50 AM77 °FPassing clouds.3 mph79%29.86 "HgN/A
3:20 AM77 °FPassing clouds.3 mph79%29.86 "HgN/A
2:50 AM77 °FPassing clouds.3 mph79%29.86 "HgN/A
2:20 AM79 °FPassing clouds.1 mph74%29.89 "HgN/A
1:50 AM79 °FPassing clouds.3 mph74%29.89 "HgN/A
1:20 AM79 °FPassing clouds.3 mph74%29.89 "HgN/A
12:50 AM81 °FPassing clouds.3 mph70%29.89 "HgN/A
12:20 AM82 °FPassing clouds.2 mph70%29.89 "HgN/A
11:50 PM
Fri, Aug 28
82 °FPassing clouds.3 mph70%29.89 "HgN/A
11:20 PM82 °FClear.3 mph70%29.89 "Hg10 mi
10:50 PM82 °FPassing clouds.3 mph70%29.89 "HgN/A
10:20 PM82 °FPassing clouds.3 mph70%29.89 "HgN/A
9:50 PM82 °FClear.5 mph70%29.89 "Hg10 mi
9:20 PM82 °FClear.3 mph70%29.89 "Hg10 mi
8:50 PM82 °FClear.6 mph70%29.89 "Hg10 mi
8:20 PM84 °FClear.6 mph66%29.89 "Hg10 mi
7:50 PM84 °FSunny.7 mph66%29.89 "Hg10 mi
7:20 PM84 °FSunny.7 mph66%29.86 "Hg10 mi
6:50 PM86 °FSunny.10 mph59%29.86 "Hg10 mi
6:20 PM86 °FSunny.9 mph59%29.86 "Hg10 mi
5:50 PM88 °FSunny.10 mph55%29.86 "Hg10 mi
5:20 PM88 °FSunny.13 mph55%29.86 "Hg10 mi
4:50 PM90 °FSunny.14 mph52%29.86 "Hg10 mi
4:20 PM90 °FSunny.14 mph49%29.86 "Hg10 mi
3:50 PM90 °FPassing clouds.13 mph46%29.86 "HgN/A
3:20 PM90 °FPassing clouds.12 mph49%29.86 "HgN/A
2:50 PM90 °FPassing clouds.12 mph52%29.86 "HgN/A
2:20 PM90 °FPassing clouds.13 mph52%29.89 "HgN/A
1:50 PM90 °FPassing clouds.14 mph52%29.89 "HgN/A
1:20 PM90 °FPassing clouds.13 mph49%29.89 "HgN/A
12:50 PM90 °FPassing clouds.10 mph49%29.89 "HgN/A
12:20 PM90 °FPassing clouds.10 mph52%29.89 "HgN/A
11:50 AM88 °FPassing clouds.9 mph55%29.89 "HgN/A
11:20 AM88 °FPassing clouds.8 mph55%29.89 "HgN/A
10:50 AM88 °FPassing clouds.7 mph55%29.89 "HgN/A
10:20 AM88 °FPassing clouds.2 mph55%29.89 "HgN/A
9:50 AM86 °FScattered clouds.3 mph62%29.89 "HgN/A
9:20 AM84 °FScattered clouds.3 mph66%29.89 "HgN/A
Weather by CustomWeather, © 2015

See weather overviewHow to use our weather pages